2014-12-15 00:01:22 r, 19.01m,0000000002Hz,0000218888c,0000000.475s, 012.2C,00002191
2014-12-15 00:11:19 r, 19.00m,0000000002Hz,0000217035c,0000000.471s, 012.2C,00002191
2014-12-15 00:21:21 r, 18.91m,0000000002Hz,0000198694c,0000000.431s, 011.9C,00002191
2014-12-15 00:31:20 r, 19.13m,0000000002Hz,0000244939c,0000000.532s, 011.9C,00002191
2014-12-15 00:41:21 r, 18.83m,0000000003Hz,0000185187c,0000000.402s, 011.6C,00002191
2014-12-15 00:51:19 r, 18.89m,0000000003Hz,0000195620c,0000000.425s, 011.6C,00002191
2014-12-15 01:01:21 r, 18.86m,0000000002Hz,0000189951c,0000000.412s, 011.2C,00002191
2014-12-15 01:11:20 r, 18.87m,0000000002Hz,0000192081c,0000000.417s, 011.2C,00002191
2014-12-15 01:21:22 r, 19.03m,0000000002Hz,0000223370c,0000000.485s, 010.9C,00002191
2014-12-15 01:31:21 r, 18.91m,0000000002Hz,0000200336c,0000000.435s, 010.9C,00002191
2014-12-15 01:41:22 r, 18.91m,0000000002Hz,0000199729c,0000000.433s, 010.9C,00002191
2014-12-15 01:51:20 r, 18.96m,0000000003Hz,0000209277c,0000000.454s, 010.6C,00002191
2014-12-15 02:01:20 r, 18.84m,0000000003Hz,0000187108c,0000000.406s, 010.3C,00002191
2014-12-15 02:11:19 r, 18.86m,0000000003Hz,0000190010c,0000000.412s, 010.3C,00002191
2014-12-15 02:21:21 r, 18.98m,0000000002Hz,0000213376c,0000000.463s, 010.3C,00002191
2014-12-15 02:31:23 r, 18.94m,0000000003Hz,0000205472c,0000000.446s, 009.9C,00002191
2014-12-15 02:41:21 r, 19.03m,0000000002Hz,0000221839c,0000000.481s, 009.9C,00002191
2014-12-15 02:51:19 r, 19.03m,0000000002Hz,0000223704c,0000000.485s, 009.6C,00002191
2014-12-15 03:01:22 r, 18.95m,0000000002Hz,0000207579c,0000000.450s, 009.6C,00002191
2014-12-15 03:11:21 r, 19.16m,0000000002Hz,0000250630c,0000000.544s, 009.3C,00002191
2014-12-15 03:21:22 r, 19.14m,0000000001Hz,0000246687c,0000000.535s, 009.3C,00002191
2014-12-15 03:31:21 r, 18.88m,0000000003Hz,0000192940c,0000000.419s, 009.0C,00002191
2014-12-15 03:41:22 r, 18.84m,0000000002Hz,0000187227c,0000000.406s, 009.0C,00002191
2014-12-15 03:51:20 r, 19.01m,0000000003Hz,0000217823c,0000000.473s, 009.0C,00002191
2014-12-15 04:01:21 r, 18.83m,0000000003Hz,0000187318c,0000000.407s, 008.7C,00002191
2014-12-15 04:11:20 r, 18.81m,0000000003Hz,0000182402c,0000000.396s, 008.7C,00002191
2014-12-15 04:21:21 r, 18.69m,0000000003Hz,0000164275c,0000000.356s, 008.7C,00002191
2014-12-15 04:31:20 r, 18.66m,0000000003Hz,0000159145c,0000000.345s, 008.3C,00002191
2014-12-15 04:41:20 r, 18.86m,0000000003Hz,0000191906c,0000000.416s, 008.0C,00002191
2014-12-15 04:51:19 r, 18.84m,0000000002Hz,0000189149c,0000000.410s, 008.0C,00002191
2014-12-15 05:01:22 r, 18.78m,0000000003Hz,0000178714c,0000000.388s, 007.7C,00002191
2014-12-15 05:11:20 r, 18.84m,0000000003Hz,0000188150c,0000000.408s, 007.7C,00002191
2014-12-15 05:21:20 r, 18.75m,0000000002Hz,0000173726c,0000000.377s, 007.7C,00002191
2014-12-15 05:31:21 r, 18.76m,0000000002Hz,0000174530c,0000000.379s, 007.4C,00002191
2014-12-15 05:41:19 r, 18.81m,0000000002Hz,0000182352c,0000000.396s, 007.4C,00002191
2014-12-15 05:51:22 r, 18.73m,0000000003Hz,0000170760c,0000000.371s, 007.0C,00002191
2014-12-15 06:01:21 r, 18.65m,0000000003Hz,0000158324c,0000000.344s, 007.0C,00002191
2014-12-15 06:11:22 r, 18.63m,0000000003Hz,0000155512c,0000000.337s, 007.0C,00002191
2014-12-15 06:21:20 r, 18.57m,0000000003Hz,0000146753c,0000000.318s, 006.7C,00002191
2014-12-15 06:31:21 r, 18.72m,0000000003Hz,0000169897c,0000000.369s, 006.7C,00002191
2014-12-15 06:41:20 r, 18.63m,0000000003Hz,0000156495c,0000000.340s, 006.4C,00002191
2014-12-15 06:51:21 r, 18.53m,0000000003Hz,0000142184c,0000000.309s, 006.4C,00002191
2014-12-15 07:01:19 r, 18.46m,0000000003Hz,0000132539c,0000000.288s, 006.4C,00002191
2014-12-15 07:11:20 r, 17.78m,0000000006Hz,0000070960c,0000000.154s, 006.4C,00002191
2014-12-15 07:21:27 r, 16.59m,0000000019Hz,0000023685c,0000000.051s, 006.4C,00002191
2014-12-15 07:31:23 r, 14.90m,0000000091Hz,0000005050c,0000000.011s, 006.1C,00002191
2014-12-15 07:41:19 r, 13.10m,0000000487Hz,0000000000c,0000000.000s, 006.1C,00002191
2014-12-15 07:51:23 r, 11.43m,0000002284Hz,0000000000c,0000000.000s, 006.1C,00002191
2014-12-15 08:01:20 r, 09.61m,0000012148Hz,0000000000c,0000000.000s, 006.1C,00002191
2014-12-15 08:11:20 r, 08.36m,0000038552Hz,0000000000c,0000000.000s, 006.1C,00002191
2014-12-15 08:21:20 r, 07.36m,0000096473Hz,0000000000c,0000000.000s, 005.8C,00002191
2014-12-15 08:31:21 r, 06.63m,0000189058Hz,0000000000c,0000000.000s, 005.8C,00002191
2014-12-15 08:41:21 r, 06.29m,0000256387Hz,0000000000c,0000000.000s, 005.8C,00002191
2014-12-15 08:51:21 r, 00.00m,0000410312Hz,0000000000c,0000000.000s, 005.8C,00002191
2014-12-15 09:01:21 r, 00.00m,0000596964Hz,0000000000c,0000000.000s, 006.1C,00002191
2014-12-15 09:11:22 r, 00.00m,0000596805Hz,0000000000c,0000000.000s, 006.1C,00002191
2014-12-15 09:21:22 r, 00.00m,0000596829Hz,0000000000c,0000000.000s, 006.1C,00002191
2014-12-15 09:31:22 r, 00.00m,0000596720Hz,0000000000c,0000000.000s, 006.4C,00002191
2014-12-15 09:41:19 r, 00.00m,0000596851Hz,0000000000c,0000000.000s, 006.4C,00002191
2014-12-15 09:51:30 r, 00.00m,0000596829Hz,0000000000c,0000000.000s, 006.4C,00002191
2014-12-15 10:01:19 r, 00.00m,0000596810Hz,0000000000c,0000000.000s, 006.1C,00002191
2014-12-15 10:11:21 r, 00.00m,0000596797Hz,0000000000c,0000000.000s, 006.1C,00002191
2014-12-15 10:21:21 r, 00.00m,0000596843Hz,0000000000c,0000000.000s, 006.1C,00002191
2014-12-15 10:31:21 r, 00.00m,0000596791Hz,0000000000c,0000000.000s, 006.1C,00002191
2014-12-15 10:41:21 r, 00.00m,0000596827Hz,0000000000c,0000000.000s, 006.4C,00002191
2014-12-15 10:51:21 r, 00.00m,0000596824Hz,0000000000c,0000000.000s, 006.4C,00002191
2014-12-15 11:01:19 r, 00.00m,0000596870Hz,0000000000c,0000000.000s, 006.7C,00002191
2014-12-15 11:11:22 r, 00.00m,0000596830Hz,0000000000c,0000000.000s, 006.4C,00002191
2014-12-15 11:21:19 r, 00.00m,0000596736Hz,0000000000c,0000000.000s, 007.0C,00002191
2014-12-15 11:31:22 r, 00.00m,0000596654Hz,0000000000c,0000000.000s, 007.0C,00002191
2014-12-15 11:41:22 r, 00.00m,0000596664Hz,0000000000c,0000000.000s, 007.0C,00002191
2014-12-15 11:51:21 r, 00.00m,0000596736Hz,0000000000c,0000000.000s, 007.0C,00002191
2014-12-15 12:01:19 r, 00.00m,0000596680Hz,0000000000c,0000000.000s, 007.0C,00002191
2014-12-15 12:11:21 r, 00.00m,0000596685Hz,0000000000c,0000000.000s, 007.4C,00002191
2014-12-15 12:21:19 r, 00.00m,0000596681Hz,0000000000c,0000000.000s, 007.4C,00002191
2014-12-15 12:31:24 r, 00.00m,0000596684Hz,0000000000c,0000000.000s, 007.7C,00002191
2014-12-15 12:41:21 r, 00.00m,0000596757Hz,0000000000c,0000000.000s, 007.7C,00002191
2014-12-15 12:51:22 r, 00.00m,0000596592Hz,0000000000c,0000000.000s, 008.0C,00002191
2014-12-15 13:01:20 r, 00.00m,0000596680Hz,0000000000c,0000000.000s, 008.0C,00002191
2014-12-15 13:11:22 r, 00.00m,0000596527Hz,0000000000c,0000000.000s, 008.3C,00002191
2014-12-15 13:21:19 r, 00.00m,0000596588Hz,0000000000c,0000000.000s, 008.3C,00002191
2014-12-15 13:31:20 r, 00.00m,0000596617Hz,0000000000c,0000000.000s, 008.0C,00002191
2014-12-15 13:41:23 r, 00.00m,0000596670Hz,0000000000c,0000000.000s, 008.0C,00002191
2014-12-15 13:51:20 r, 00.00m,0000596604Hz,0000000000c,0000000.000s, 007.7C,00002191
2014-12-15 14:01:20 r, 00.00m,0000596684Hz,0000000000c,0000000.000s, 007.4C,00002191
2014-12-15 14:11:21 r, 00.00m,0000596767Hz,0000000000c,0000000.000s, 007.7C,00002191
2014-12-15 14:21:19 r, 00.00m,0000596703Hz,0000000000c,0000000.000s, 007.4C,00002191
2014-12-15 14:31:22 r, 00.00m,0000596596Hz,0000000000c,0000000.000s, 008.0C,00002191
2014-12-15 14:41:22 r, 00.00m,0000596678Hz,0000000000c,0000000.000s, 007.7C,00002191
2014-12-15 14:51:25 r, 00.00m,0000596736Hz,0000000000c,0000000.000s, 007.4C,00002191
2014-12-15 15:01:19 r, 00.00m,0000596706Hz,0000000000c,0000000.000s, 007.0C,00002191
2014-12-15 15:11:34 r, 00.00m,0000596812Hz,0000000000c,0000000.000s, 006.7C,00002191
2014-12-15 15:21:19 r, 00.00m,0000596757Hz,0000000000c,0000000.000s, 006.7C,00002191
2014-12-15 15:31:21 r, 00.00m,0000596674Hz,0000000000c,0000000.000s, 006.7C,00002191
2014-12-15 15:41:19 r, 00.00m,0000596758Hz,0000000000c,0000000.000s, 006.4C,00002191
2014-12-15 15:51:21 r, 00.00m,0000561235Hz,0000000000c,0000000.000s, 006.1C,00002191
2014-12-15 16:01:19 r, 00.00m,0000454633Hz,0000000000c,0000000.000s, 005.8C,00002191
2014-12-15 16:11:21 r, 06.41m,0000230565Hz,0000000000c,0000000.000s, 005.4C,00002191
2014-12-15 16:21:21 r, 06.97m,0000138000Hz,0000000000c,0000000.000s, 004.8C,00002191
2014-12-15 16:31:20 r, 07.78m,0000065427Hz,0000000000c,0000000.000s, 004.5C,00002191
2014-12-15 16:41:21 r, 08.87m,0000024027Hz,0000000000c,0000000.000s, 003.8C,00002191
2014-12-15 16:51:19 r, 10.19m,0000007093Hz,0000000000c,0000000.000s, 003.5C,00002191
2014-12-15 17:01:21 r, 11.98m,0000001365Hz,0000000000c,0000000.000s, 003.5C,00002191
2014-12-15 17:11:19 r, 13.79m,0000000258Hz,0000000000c,0000000.000s, 003.8C,00002191
2014-12-15 17:21:22 r, 15.67m,0000000046Hz,0000010222c,0000000.022s, 004.1C,00002191
2014-12-15 17:31:19 r, 17.21m,0000000011Hz,0000042165c,0000000.092s, 003.8C,00002191
2014-12-15 17:41:22 r, 18.57m,0000000003Hz,0000146837c,0000000.319s, 003.8C,00002191
2014-12-15 17:51:19 r, 19.54m,0000000001Hz,0000358128c,0000000.777s, 003.5C,00002191
2014-12-15 18:01:21 r, 20.03m,0000000001Hz,0000561377c,0000001.218s, 003.2C,00002191
2014-12-15 18:11:21 r, 20.18m,0000000001Hz,0000647068c,0000001.404s, 002.9C,00002191
2014-12-15 18:21:19 r, 20.23m,0000000001Hz,0000673928c,0000001.463s, 002.5C,00002191
2014-12-15 18:31:22 r, 20.27m,0000000001Hz,0000697846c,0000001.514s, 002.2C,00002191
2014-12-15 18:41:21 r, 20.32m,0000000001Hz,0000728848c,0000001.582s, 002.2C,00002191
2014-12-15 18:51:21 r, 20.33m,0000000001Hz,0000736450c,0000001.598s, 001.9C,00002191
2014-12-15 19:01:20 r, 20.22m,0000000000Hz,0000669315c,0000001.453s, 001.9C,00002191
2014-12-15 19:11:21 r, 19.92m,0000000001Hz,0000506088c,0000001.098s, 001.6C,00002191
2014-12-15 19:21:19 r, 20.00m,0000000001Hz,0000544331c,0000001.181s, 001.6C,00002191
2014-12-15 19:31:21 r, 20.10m,0000000001Hz,0000600304c,0000001.303s, 001.6C,00002191
2014-12-15 19:41:20 r, 20.35m,0000000000Hz,0000752819c,0000001.634s, 001.6C,00002191
2014-12-15 19:51:22 r, 20.28m,0000000001Hz,0000706398c,0000001.533s, 001.6C,00002191
2014-12-15 20:01:19 r, 20.22m,0000000000Hz,0000669520c,0000001.453s, 001.6C,00002191
2014-12-15 20:11:22 r, 20.29m,0000000001Hz,0000708743c,0000001.538s, 001.6C,00002191
2014-12-15 20:21:19 r, 20.18m,0000000001Hz,0000642248c,0000001.394s, 001.6C,00002191
2014-12-15 20:31:22 r, 19.88m,0000000001Hz,0000485780c,0000001.054s, 001.6C,00002191
2014-12-15 20:41:20 r, 19.63m,0000000002Hz,0000388706c,0000000.844s, 001.6C,00002191
2014-12-15 20:51:21 r, 19.64m,0000000001Hz,0000390394c,0000000.847s, 001.6C,00002191
2014-12-15 21:01:19 r, 19.88m,0000000001Hz,0000483772c,0000001.050s, 001.6C,00002191
2014-12-15 21:11:21 r, 20.04m,0000000001Hz,0000565646c,0000001.228s, 001.6C,00002191
2014-12-15 21:21:19 r, 20.10m,0000000001Hz,0000599002c,0000001.300s, 001.6C,00002191
2014-12-15 21:31:22 r, 20.01m,0000000001Hz,0000550784c,0000001.195s, 001.2C,00002191
2014-12-15 21:41:19 r, 20.25m,0000000001Hz,0000684460c,0000001.485s, 001.2C,00002191
2014-12-15 21:51:19 r, 20.35m,0000000000Hz,0000749531c,0000001.627s, 000.9C,00002191
2014-12-15 22:01:19 r, 20.51m,0000000001Hz,0000866649c,0000001.881s, 000.9C,00002191
2014-12-15 22:11:22 r, 20.60m,0000000001Hz,0000945260c,0000002.051s, 000.6C,00002191
2014-12-15 22:21:19 r, 20.53m,0000000001Hz,0000884120c,0000001.919s, 000.3C,00002191
2014-12-15 22:31:21 r, 20.62m,0000000001Hz,0000959719c,0000002.083s, 000.3C,00002191
2014-12-15 22:41:21 r, 20.60m,0000000001Hz,0000943080c,0000002.047s, 000.3C,00002191
2014-12-15 22:51:19 r, 20.40m,0000000001Hz,0000780465c,0000001.694s, 000.1C,00002191
2014-12-15 23:01:22 r, 20.28m,0000000001Hz,0000704460c,0000001.529s, 000.1C,00002191
2014-12-15 23:11:21 r, 20.02m,0000000001Hz,0000555881c,0000001.206s, 000.3C,00002191
2014-12-15 23:21:21 r, 19.88m,0000000001Hz,0000488519c,0000001.060s, 000.6C,00002191
2014-12-15 23:31:21 r, 19.91m,0000000001Hz,0000501178c,0000001.088s, 000.6C,00002191
2014-12-15 23:41:21 r, 19.75m,0000000001Hz,0000432992c,0000000.940s, 000.9C,00002191
2014-12-15 23:51:27 r, 19.25m,0000000002Hz,0000272536c,0000000.591s, 001.2C,00002191
